Overview Statistics Trail Chart Weather Telemetry Raw packets
 

This is the latest recevied weather packets stored in our database for station/object KD7AWQ. If no packets are shown the sender has not sent any weather packets the latest 10 day(s).

<< 65 66 67 68 69 70 71 >>
Time Temp. Humidity Pressure Rain* Wind** Luminosity Snow
1787968329 31.11° C 28% 1187.3 hPa 0 mm - 3 W/m² -
1787968025 32.22° C 27% 1187.2 hPa 0 mm - 5 W/m² -
1787967722 32.78° C 25% 1187.2 hPa 0 mm - 9 W/m² -
1787967421 32.78° C 25% 1187.1 hPa 0 mm - 12 W/m² -
1787967116 33.89° C 24% 1186.9 hPa 0 mm - 16 W/m² -
1787966813 33.89° C 23% 1186.5 hPa 0 mm - 24 W/m² -
1787966508 33.89° C 23% 1186.7 hPa 0 mm - 31 W/m² -
1787966203 33.89° C 23% 1186.5 hPa 0 mm - 40 W/m² -
1787965903 33.89° C 23% 1186.3 hPa 0 mm - 49 W/m² -
1787965598 34.44° C 23% 1186.4 hPa 0 mm - 61 W/m² -
1787965292 34.44° C 23% 1186.6 hPa 0 mm - 76 W/m² -
1787964992 35° C 23% 1186.4 hPa 0 mm - 123 W/m² -
1787964692 35° C 20% 1186.4 hPa 0 mm - 144 W/m² -
1787964386 35.56° C 20% 1186.5 hPa 0 mm - 162 W/m² -
1787964086 35° C 20% 1186.4 hPa 0 mm - 185 W/m² -
1787963781 34.44° C 21% 1186.4 hPa 0 mm - 202 W/m² -
1787963475 34.44° C 22% 1186.6 hPa 0 mm - 216 W/m² -
1787963173 33.89° C 22% 1186.3 hPa 0 mm - 135 W/m² -
1787962869 33.89° C 22% 1186.4 hPa 0 mm - 137 W/m² -
1787962568 33.89° C 23% 1186.5 hPa 0 mm - 138 W/m² -
1787962268 34.44° C 22% 1186.4 hPa 0 mm - 126 W/m² -
1787961963 34.44° C 22% 1186.2 hPa 0 mm - 120 W/m² -
1787961657 34.44° C 22% 1186.1 hPa 0 mm - 129 W/m² -
1787961351 33.89° C 22% 1186.3 hPa 0 mm - 149 W/m² -
1787961045 33.89° C 22% 1186.3 hPa 0 mm - 165 W/m² -

* Rain latest hour (hover to see other rain measurements)
** Current wind speed in m/s (hover to see current wind gust speed)